User: anonymous   Login
Location: Unspecified
(0.0000°N, 0.0000°E)
Time: 04:03:23
(UTC+00:00)
Language:

USA 118 - Orbit

View from above orbital plane
View from above orbital plane
View from above satellite
View from above satellite

Ground track
Ground track

The orbit data is extracted from the following two-line orbital elements,

1 23855U 96026A   17360.59610453 0.00000000  00000-0  00000-0 0    09
2 23855   9.4816 359.5806 0410620 246.7497 108.8831  1.00270000    00
Epoch (UTC): 26 December 2017 14:18:23
Eccentricity: 0.0410620
inclination: 9.4816°
perigee height: 34055 km
apogee height: 37518 km
right ascension of ascending node: 359.5806°
argument of perigee: 246.7497°
revolutions per day: 1.00270000
mean anomaly at epoch: 108.8831°
orbit number at epoch: 0

The dashed part of the orbit path shows where the satellite is in the earth's shadow,  

DLR